Time,TemperatureF,DewpointF,PressureIn,WindDirection,WindDirectionDegrees,WindSpeedMPH,WindSpeedGustMPH,Humidity,HourlyPrecipIn,Conditions,Clouds,dailyrainin,SoftwareType,DateUTC
2013-09-14 00:02:00,76.8,55.0,29.82,SE,141,0.0,0.0,47,0.00,,,0.00,meteohub,2013-09-14 05:02:00,
2013-09-14 00:07:00,76.8,55.6,29.83,SE,140,0.0,0.0,48,0.00,,,0.00,meteohub,2013-09-14 05:07:00,
2013-09-14 00:12:00,76.8,56.3,29.83,SE,140,0.0,0.0,49,0.00,,,0.00,meteohub,2013-09-14 05:12:00,
2013-09-14 00:17:00,76.6,56.1,29.82,SE,140,0.0,0.0,49,0.00,,,0.00,meteohub,2013-09-14 05:17:00,
2013-09-14 00:22:00,76.5,55.9,29.83,SE,141,0.0,0.0,49,0.00,,,0.00,meteohub,2013-09-14 05:22:00,
2013-09-14 00:27:00,76.5,55.9,29.83,SE,141,0.0,0.0,49,0.00,,,0.00,meteohub,2013-09-14 05:27:00,
2013-09-14 00:32:00,76.3,55.8,29.82,SE,141,0.0,0.0,49,0.00,,,0.00,meteohub,2013-09-14 05:32:00,
2013-09-14 00:37:00,76.1,56.1,29.82,SE,141,0.0,0.0,50,0.00,,,0.00,meteohub,2013-09-14 05:37:00,
2013-09-14 00:42:00,76.1,55.6,29.83,SE,141,0.0,0.0,49,0.00,,,0.00,meteohub,2013-09-14 05:42:00,
2013-09-14 00:47:00,75.9,55.4,29.83,SE,141,0.0,0.0,49,0.00,,,0.00,meteohub,2013-09-14 05:47:00,
2013-09-14 00:52:00,75.9,55.9,29.82,SE,140,0.0,0.0,50,0.00,,,0.00,meteohub,2013-09-14 05:52:00,
2013-09-14 00:57:00,76.1,56.1,29.83,SE,141,0.0,0.0,50,0.00,,,0.00,meteohub,2013-09-14 05:57:00,
2013-09-14 01:02:00,76.1,56.1,29.83,SE,141,0.0,0.0,50,0.00,,,0.00,meteohub,2013-09-14 06:02:00,
2013-09-14 01:07:00,76.3,56.3,29.83,SE,141,0.0,0.0,50,0.00,,,0.00,meteohub,2013-09-14 06:07:00,
2013-09-14 01:12:00,76.1,56.1,29.83,SE,140,0.0,0.0,50,0.00,,,0.00,meteohub,2013-09-14 06:12:00,
2013-09-14 01:17:00,75.9,56.5,29.83,SE,140,0.0,0.0,51,0.00,,,0.00,meteohub,2013-09-14 06:17:00,
2013-09-14 01:22:00,75.7,56.8,29.83,SE,141,0.0,0.0,52,0.00,,,0.00,meteohub,2013-09-14 06:22:00,
2013-09-14 01:27:00,75.6,57.2,29.83,SE,141,0.0,0.0,53,0.00,,,0.00,meteohub,2013-09-14 06:27:00,
2013-09-14 01:32:00,75.4,57.0,29.82,SE,141,0.0,0.0,53,0.00,,,0.00,meteohub,2013-09-14 06:32:00,
2013-09-14 01:37:00,75.2,56.8,29.83,SE,141,0.0,0.0,53,0.00,,,0.00,meteohub,2013-09-14 06:37:00,
2013-09-14 01:43:00,75.0,56.7,29.83,SE,141,0.0,0.0,53,0.00,,,0.00,meteohub,2013-09-14 06:43:00,
2013-09-14 01:48:00,75.0,56.7,29.82,SE,140,0.0,0.0,53,0.00,,,0.00,meteohub,2013-09-14 06:48:00,
2013-09-14 01:53:00,75.0,56.7,29.82,SE,141,0.0,0.0,53,0.00,,,0.00,meteohub,2013-09-14 06:53:00,
2013-09-14 01:58:00,75.4,57.0,29.82,SE,140,0.0,0.0,53,0.00,,,0.00,meteohub,2013-09-14 06:58:00,
2013-09-14 02:03:00,75.4,55.4,29.82,SE,140,0.0,0.0,50,0.00,,,0.00,meteohub,2013-09-14 07:03:00,
2013-09-14 02:08:00,75.0,55.0,29.82,SE,141,0.0,0.0,50,0.00,,,0.00,meteohub,2013-09-14 07:08:00,
2013-09-14 02:13:00,74.8,55.0,29.82,SE,140,0.0,0.0,50,0.00,,,0.00,meteohub,2013-09-14 07:13:00,
2013-09-14 02:18:00,74.7,55.4,29.82,SE,141,0.0,0.0,51,0.00,,,0.00,meteohub,2013-09-14 07:18:00,
2013-09-14 02:23:00,74.5,55.2,29.82,SE,141,0.0,0.0,51,0.00,,,0.00,meteohub,2013-09-14 07:23:00,
2013-09-14 02:28:00,74.3,55.0,29.82,SE,141,0.0,0.0,51,0.00,,,0.00,meteohub,2013-09-14 07:28:00,
2013-09-14 02:33:00,74.1,54.9,29.82,SE,140,0.0,0.0,51,0.00,,,0.00,meteohub,2013-09-14 07:33:00,
2013-09-14 02:38:00,74.1,55.4,29.82,SE,141,0.0,0.0,52,0.00,,,0.00,meteohub,2013-09-14 07:38:00,
2013-09-14 02:43:00,74.1,55.9,29.82,SE,140,0.0,0.0,53,0.00,,,0.00,meteohub,2013-09-14 07:43:00,
2013-09-14 02:48:00,73.9,56.3,29.82,SE,141,0.0,0.0,54,0.00,,,0.00,meteohub,2013-09-14 07:48:00,
2013-09-14 02:53:00,73.8,56.7,29.82,SE,141,0.0,0.0,55,0.00,,,0.00,meteohub,2013-09-14 07:53:00,
2013-09-14 02:58:00,73.6,56.5,29.82,SE,141,0.0,0.0,55,0.00,,,0.00,meteohub,2013-09-14 07:58:00,
2013-09-14 03:03:00,73.6,56.5,29.82,SE,140,0.0,0.0,55,0.00,,,0.00,meteohub,2013-09-14 08:03:00,
2013-09-14 03:08:00,73.6,56.5,29.82,SE,141,0.0,0.0,55,0.00,,,0.00,meteohub,2013-09-14 08:08:00,
2013-09-14 03:13:00,73.4,56.3,29.82,SE,140,0.0,0.0,55,0.00,,,0.00,meteohub,2013-09-14 08:13:00,
2013-09-14 03:18:00,73.4,55.8,29.82,SE,140,0.0,0.0,54,0.00,,,0.00,meteohub,2013-09-14 08:18:00,
2013-09-14 03:23:00,73.6,55.9,29.82,SE,141,0.0,0.0,54,0.00,,,0.00,meteohub,2013-09-14 08:23:00,
2013-09-14 03:28:00,73.6,56.5,29.82,SE,141,0.0,0.0,55,0.00,,,0.00,meteohub,2013-09-14 08:28:00,
2013-09-14 03:33:00,73.2,56.1,29.82,SE,141,0.0,0.0,55,0.00,,,0.00,meteohub,2013-09-14 08:33:00,
2013-09-14 03:38:00,73.2,56.1,29.82,SE,141,0.0,0.0,55,0.00,,,0.00,meteohub,2013-09-14 08:38:00,
2013-09-14 03:43:00,73.2,55.6,29.82,SE,141,0.0,0.0,54,0.00,,,0.00,meteohub,2013-09-14 08:43:00,
2013-09-14 03:48:00,73.2,55.6,29.81,SE,141,0.0,0.0,54,0.00,,,0.00,meteohub,2013-09-14 08:48:00,
2013-09-14 03:53:00,73.2,55.6,29.82,SE,140,0.0,0.0,54,0.00,,,0.00,meteohub,2013-09-14 08:53:00,
2013-09-14 03:58:00,73.2,55.6,29.81,SE,140,0.0,0.0,54,0.00,,,0.00,meteohub,2013-09-14 08:58:00,
2013-09-14 04:03:00,73.0,55.4,29.82,SE,141,0.0,0.0,54,0.00,,,0.00,meteohub,2013-09-14 09:03:00,
2013-09-14 04:08:00,72.9,55.2,29.82,SE,141,0.0,0.0,54,0.00,,,0.00,meteohub,2013-09-14 09:08:00,
2013-09-14 04:13:00,72.7,55.0,29.82,SE,140,0.0,0.0,54,0.00,,,0.00,meteohub,2013-09-14 09:13:00,
2013-09-14 04:18:00,72.7,55.6,29.82,SE,140,0.0,0.0,55,0.00,,,0.00,meteohub,2013-09-14 09:18:00,
2013-09-14 04:23:00,72.7,55.6,29.81,SSW,212,3.0,0.0,55,0.00,,,0.00,meteohub,2013-09-14 09:23:00,
2013-09-14 04:28:00,72.7,56.1,29.82,SW,227,0.0,0.0,56,0.00,,,0.00,meteohub,2013-09-14 09:28:00,
2013-09-14 04:33:00,72.9,56.3,29.82,SW,227,0.0,7.0,56,0.00,,,0.00,meteohub,2013-09-14 09:33:00,
2013-09-14 04:38:00,73.0,55.9,29.82,SW,226,0.0,7.0,55,0.00,,,0.00,meteohub,2013-09-14 09:38:00,
2013-09-14 04:43:00,73.0,55.9,29.82,SW,226,0.0,7.0,55,0.00,,,0.00,meteohub,2013-09-14 09:43:00,
2013-09-14 04:48:00,72.9,55.8,29.83,SW,226,0.0,2.0,55,0.00,,,0.00,meteohub,2013-09-14 09:48:00,
2013-09-14 04:53:00,72.5,55.9,29.83,SW,226,0.0,2.0,56,0.00,,,0.00,meteohub,2013-09-14 09:53:00,
2013-09-14 04:58:00,72.1,55.6,29.82,SW,226,0.0,0.0,56,0.00,,,0.00,meteohub,2013-09-14 09:58:00,
2013-09-14 05:03:00,72.0,55.4,29.83,SW,226,0.0,0.0,56,0.00,,,0.00,meteohub,2013-09-14 10:03:00,
2013-09-14 05:08:00,72.0,55.9,29.82,SW,226,0.0,0.0,57,0.00,,,0.00,meteohub,2013-09-14 10:08:00,
2013-09-14 05:13:00,71.8,55.8,29.83,SW,226,0.0,0.0,57,0.00,,,0.00,meteohub,2013-09-14 10:13:00,
2013-09-14 05:18:00,71.8,55.8,29.82,SW,226,0.0,0.0,57,0.00,,,0.00,meteohub,2013-09-14 10:18:00,
2013-09-14 05:23:00,71.8,55.8,29.82,SW,226,0.0,0.0,57,0.00,,,0.00,meteohub,2013-09-14 10:23:00,
2013-09-14 05:29:00,71.4,55.9,29.83,SW,226,0.0,0.0,58,0.00,,,0.00,meteohub,2013-09-14 10:29:00,
2013-09-14 05:34:00,71.2,55.8,29.83,SW,226,0.0,0.0,58,0.00,,,0.00,meteohub,2013-09-14 10:34:00,
2013-09-14 05:39:00,71.1,55.9,29.83,SW,226,0.0,0.0,59,0.00,,,0.00,meteohub,2013-09-14 10:39:00,
2013-09-14 05:44:00,71.1,55.9,29.83,SW,226,0.0,0.0,59,0.00,,,0.00,meteohub,2013-09-14 10:44:00,
2013-09-14 05:49:00,70.9,55.8,29.83,SW,226,0.0,0.0,59,0.00,,,0.00,meteohub,2013-09-14 10:49:00,
2013-09-14 05:54:00,70.7,56.1,29.83,SW,226,0.0,0.0,60,0.00,,,0.00,meteohub,2013-09-14 10:54:00,
2013-09-14 05:59:00,70.5,56.5,29.83,SW,226,0.0,0.0,61,0.00,,,0.00,meteohub,2013-09-14 10:59:00,
2013-09-14 06:04:00,70.3,56.3,29.83,SW,226,0.0,0.0,61,0.00,,,0.00,meteohub,2013-09-14 11:04:00,
2013-09-14 06:09:00,70.3,56.3,29.83,SW,226,0.0,0.0,61,0.00,,,0.00,meteohub,2013-09-14 11:09:00,
2013-09-14 06:14:00,70.2,56.1,29.83,SW,226,0.0,0.0,61,0.00,,,0.00,meteohub,2013-09-14 11:14:00,
2013-09-14 06:19:00,70.0,55.9,29.83,SW,226,0.0,0.0,61,0.00,,,0.00,meteohub,2013-09-14 11:19:00,
2013-09-14 06:24:00,70.0,55.9,29.83,SW,226,0.0,0.0,61,0.00,,,0.00,meteohub,2013-09-14 11:24:00,
2013-09-14 06:29:00,69.8,55.8,29.83,SW,226,0.0,0.0,61,0.00,,,0.00,meteohub,2013-09-14 11:29:00,
2013-09-14 06:34:00,69.8,55.8,29.83,SW,226,0.0,0.0,61,0.00,,,0.00,meteohub,2013-09-14 11:34:00,
2013-09-14 06:39:00,70.0,55.9,29.83,SW,226,0.0,0.0,61,0.00,,,0.00,meteohub,2013-09-14 11:39:00,
2013-09-14 06:44:00,70.0,56.3,29.84,SW,226,0.0,0.0,62,0.00,,,0.00,meteohub,2013-09-14 11:44:00,
2013-09-14 06:49:00,70.0,56.3,29.83,SW,226,0.0,0.0,62,0.00,,,0.00,meteohub,2013-09-14 11:49:00,
2013-09-14 06:54:00,69.8,56.1,29.84,SW,226,0.0,0.0,62,0.00,,,0.00,meteohub,2013-09-14 11:54:00,
2013-09-14 06:59:00,69.6,55.9,29.84,SW,226,0.0,0.0,62,0.00,,,0.00,meteohub,2013-09-14 11:59:00,
2013-09-14 07:04:00,69.4,55.9,29.83,SW,226,0.0,0.0,62,0.00,,,0.00,meteohub,2013-09-14 12:04:00,
2013-09-14 07:09:00,69.4,56.3,29.84,SW,226,0.0,0.0,63,0.00,,,0.00,meteohub,2013-09-14 12:09:00,
2013-09-14 07:14:00,69.3,56.1,29.84,SW,226,0.0,0.0,63,0.00,,,0.00,meteohub,2013-09-14 12:14:00,
2013-09-14 07:19:00,69.3,56.1,29.84,SW,226,0.0,0.0,63,0.00,,,0.00,meteohub,2013-09-14 12:19:00,
2013-09-14 07:24:00,69.3,56.1,29.84,SW,226,0.0,0.0,63,0.00,,,0.00,meteohub,2013-09-14 12:24:00,
2013-09-14 07:29:00,69.4,56.3,29.84,SW,226,0.0,0.0,63,0.00,,,0.00,meteohub,2013-09-14 12:29:00,
2013-09-14 07:34:00,69.4,56.7,29.84,SW,226,0.0,0.0,64,0.00,,,0.00,meteohub,2013-09-14 12:34:00,
2013-09-14 07:39:00,69.4,56.3,29.85,SW,226,0.0,0.0,63,0.00,,,0.00,meteohub,2013-09-14 12:39:00,
2013-09-14 07:44:00,69.4,56.3,29.85,SW,226,0.0,0.0,63,0.00,,,0.00,meteohub,2013-09-14 12:44:00,
2013-09-14 07:49:00,69.4,56.7,29.85,SW,226,0.0,0.0,64,0.00,,,0.00,meteohub,2013-09-14 12:49:00,
2013-09-14 07:54:00,69.4,57.2,29.85,SW,226,0.0,0.0,65,0.00,,,0.00,meteohub,2013-09-14 12:54:00,
2013-09-14 07:59:00,69.4,56.7,29.85,SW,226,0.0,0.0,64,0.00,,,0.00,meteohub,2013-09-14 12:59:00,
2013-09-14 08:04:00,69.8,57.0,29.86,SW,226,0.0,0.0,64,0.00,,,0.00,meteohub,2013-09-14 13:04:00,
2013-09-14 08:09:00,70.2,57.0,29.86,SW,226,0.0,0.0,63,0.00,,,0.00,meteohub,2013-09-14 13:09:00,
2013-09-14 08:14:00,70.5,57.4,29.86,SW,226,0.0,0.0,63,0.00,,,0.00,meteohub,2013-09-14 13:14:00,
2013-09-14 08:19:00,71.1,57.4,29.86,SW,226,0.0,0.0,62,0.00,,,0.00,meteohub,2013-09-14 13:19:00,
2013-09-14 08:24:00,71.2,57.6,29.86,SW,226,0.0,0.0,62,0.00,,,0.00,meteohub,2013-09-14 13:24:00,
2013-09-14 08:29:00,71.8,58.1,29.86,SW,226,0.0,0.0,62,0.00,,,0.00,meteohub,2013-09-14 13:29:00,
2013-09-14 08:34:00,72.3,58.1,29.86,SW,226,0.0,0.0,61,0.00,,,0.00,meteohub,2013-09-14 13:34:00,
2013-09-14 08:39:00,72.9,58.1,29.86,SW,226,0.0,0.0,60,0.00,,,0.00,meteohub,2013-09-14 13:39:00,
2013-09-14 08:44:00,73.2,57.6,29.87,SW,226,0.0,0.0,58,0.00,,,0.00,meteohub,2013-09-14 13:44:00,
2013-09-14 08:49:00,73.8,58.5,29.87,SW,226,0.0,0.0,59,0.00,,,0.00,meteohub,2013-09-14 13:49:00,
2013-09-14 08:54:00,74.1,58.5,29.86,SW,226,0.0,0.0,58,0.00,,,0.00,meteohub,2013-09-14 13:54:00,
2013-09-14 08:59:00,74.5,58.8,29.86,SW,226,0.0,0.0,58,0.00,,,0.00,meteohub,2013-09-14 13:59:00,
2013-09-14 09:04:00,74.8,59.0,29.86,SW,226,0.0,0.0,58,0.00,,,0.00,meteohub,2013-09-14 14:04:00,
2013-09-14 09:09:00,75.2,59.0,29.86,SW,226,0.0,0.0,57,0.00,,,0.00,meteohub,2013-09-14 14:09:00,
2013-09-14 09:14:00,75.7,59.4,29.87,SW,226,0.0,0.0,57,0.00,,,0.00,meteohub,2013-09-14 14:14:00,
2013-09-14 09:19:00,76.5,59.5,29.87,SW,226,0.0,0.0,56,0.00,,,0.00,meteohub,2013-09-14 14:19:00,
2013-09-14 09:24:00,77.2,59.7,29.87,SW,226,0.0,0.0,55,0.00,,,0.00,meteohub,2013-09-14 14:24:00,
2013-09-14 09:29:00,77.5,60.1,29.88,SW,226,0.0,0.0,55,0.00,,,0.00,meteohub,2013-09-14 14:29:00,
2013-09-14 09:34:00,78.3,60.3,29.88,SW,226,0.0,0.0,54,0.00,,,0.00,meteohub,2013-09-14 14:34:00,
2013-09-14 09:39:00,78.8,60.8,29.88,SW,226,0.0,0.0,54,0.00,,,0.00,meteohub,2013-09-14 14:39:00,
2013-09-14 09:44:00,79.3,60.3,29.88,SW,226,0.0,0.0,52,0.00,,,0.00,meteohub,2013-09-14 14:44:00,
2013-09-14 09:49:00,79.9,60.6,29.88,SW,226,0.0,0.0,52,0.00,,,0.00,meteohub,2013-09-14 14:49:00,
2013-09-14 09:54:00,80.1,60.8,29.88,WSW,244,2.0,3.0,52,0.00,,,0.00,meteohub,2013-09-14 14:54:00,
2013-09-14 09:59:00,80.2,61.0,29.88,WSW,258,3.0,3.0,52,0.00,,,0.00,meteohub,2013-09-14 14:59:00,
2013-09-14 10:04:00,80.2,61.5,29.88,West,266,0.0,5.0,53,0.00,,,0.00,meteohub,2013-09-14 15:04:00,
2013-09-14 10:09:00,80.4,61.7,29.88,WSW,241,3.0,5.0,53,0.00,,,0.00,meteohub,2013-09-14 15:09:00,
2013-09-14 10:14:00,80.8,62.1,29.88,West,267,0.0,5.0,53,0.00,,,0.00,meteohub,2013-09-14 15:14:00,
2013-09-14 10:19:00,81.1,62.4,29.89,West,275,5.0,8.0,53,0.00,,,0.00,meteohub,2013-09-14 15:19:00,
2013-09-14 10:24:00,81.7,62.4,29.89,West,276,0.0,8.0,52,0.00,,,0.00,meteohub,2013-09-14 15:24:00,
2013-09-14 10:29:00,81.9,62.4,29.89,SW,227,1.0,8.0,52,0.00,,,0.00,meteohub,2013-09-14 15:29:00,
2013-09-14 10:34:00,82.2,62.2,29.89,SW,229,3.0,8.0,51,0.00,,,0.00,meteohub,2013-09-14 15:34:00,
2013-09-14 10:39:00,82.8,62.8,29.88,SW,229,0.0,8.0,51,0.00,,,0.00,meteohub,2013-09-14 15:39:00,
2013-09-14 10:44:00,83.3,62.1,29.89,SW,221,0.0,6.0,49,0.00,,,0.00,meteohub,2013-09-14 15:44:00,
2013-09-14 10:49:00,83.8,62.1,29.89,SW,222,3.0,6.0,48,0.00,,,0.00,meteohub,2013-09-14 15:49:00,
2013-09-14 10:54:00,84.4,61.9,29.89,SW,223,0.0,6.0,47,0.00,,,0.00,meteohub,2013-09-14 15:54:00,
2013-09-14 10:59:00,84.6,62.1,29.89,SW,223,1.0,6.0,47,0.00,,,0.00,meteohub,2013-09-14 15:59:00,
2013-09-14 11:05:00,84.7,61.7,29.89,SW,223,1.0,6.0,46,0.00,,,0.00,meteohub,2013-09-14 16:05:00,
2013-09-14 11:10:00,84.9,61.9,29.89,SW,223,0.0,6.0,46,0.00,,,0.00,meteohub,2013-09-14 16:10:00,
2013-09-14 11:15:00,85.6,62.4,29.89,SW,223,0.0,6.0,46,0.00,,,0.00,meteohub,2013-09-14 16:15:00,
2013-09-14 11:20:00,86.2,62.4,29.89,SW,223,0.0,5.0,45,0.00,,,0.00,meteohub,2013-09-14 16:20:00,
2013-09-14 11:25:00,87.3,62.6,29.89,SW,223,0.0,5.0,44,0.00,,,0.00,meteohub,2013-09-14 16:25:00,
2013-09-14 11:30:00,88.2,62.2,29.89,WSW,246,0.0,0.0,42,0.00,,,0.00,meteohub,2013-09-14 16:30:00,
2013-09-14 11:35:00,88.2,62.2,29.89,North,0,4.0,0.0,42,0.00,,,0.00,meteohub,2013-09-14 16:35:00,
2013-09-14 11:40:00,88.0,62.1,29.89,NNW,344,0.0,0.0,42,0.00,,,0.00,meteohub,2013-09-14 16:40:00,
2013-09-14 11:45:00,88.0,62.1,29.88,NNW,344,0.0,6.0,42,0.00,,,0.00,meteohub,2013-09-14 16:45:00,
2013-09-14 11:50:00,88.5,61.9,29.88,NNW,342,0.0,6.0,41,0.00,,,0.00,meteohub,2013-09-14 16:50:00,
2013-09-14 11:55:00,89.1,62.2,29.88,NNW,329,0.0,6.0,41,0.00,,,0.00,meteohub,2013-09-14 16:55:00,
2013-09-14 12:00:00,89.2,61.0,29.88,WSW,249,10.0,10.0,39,0.00,,,0.00,meteohub,2013-09-14 17:00:00,
2013-09-14 12:05:00,89.1,61.5,29.87,WSW,249,4.0,8.0,40,0.00,,,0.00,meteohub,2013-09-14 17:05:00,
2013-09-14 12:10:00,88.9,61.5,29.88,WSW,252,1.0,8.0,40,0.00,,,0.00,meteohub,2013-09-14 17:10:00,
2013-09-14 12:15:00,88.9,61.5,29.87,East,80,2.0,8.0,40,0.00,,,0.00,meteohub,2013-09-14 17:15:00,
2013-09-14 12:20:00,88.9,61.5,29.87,SSW,198,4.0,7.0,40,0.00,,,0.00,meteohub,2013-09-14 17:20:00,
2013-09-14 12:25:00,89.2,61.0,29.87,SSE,161,0.0,7.0,39,0.00,,,0.00,meteohub,2013-09-14 17:25:00,
2013-09-14 12:30:00,90.0,61.0,29.87,SW,234,5.0,7.0,38,0.00,,,0.00,meteohub,2013-09-14 17:30:00,
2013-09-14 12:35:00,90.1,61.2,29.86,West,263,3.0,8.0,38,0.00,,,0.00,meteohub,2013-09-14 17:35:00,
2013-09-14 12:40:00,90.3,61.3,29.86,SE,127,4.0,8.0,38,0.00,,,0.00,meteohub,2013-09-14 17:40:00,
2013-09-14 12:45:00,90.9,61.0,29.86,SSE,159,0.0,8.0,37,0.00,,,0.00,meteohub,2013-09-14 17:45:00,
2013-09-14 12:50:00,91.2,61.3,29.86,NNE,24,8.0,8.0,37,0.00,,,0.00,meteohub,2013-09-14 17:50:00,
2013-09-14 12:55:00,91.2,61.3,29.86,SSW,192,0.0,8.0,37,0.00,,,0.00,meteohub,2013-09-14 17:55:00,
2013-09-14 13:00:00,91.8,61.0,29.85,South,179,0.0,8.0,36,0.00,,,0.00,meteohub,2013-09-14 18:00:00,
2013-09-14 13:05:00,92.5,61.7,29.85,SSE,151,0.0,10.0,36,0.00,,,0.00,meteohub,2013-09-14 18:05:00,
2013-09-14 13:10:00,92.8,61.2,29.85,ESE,114,6.0,10.0,35,0.00,,,0.00,meteohub,2013-09-14 18:10:00,
2013-09-14 13:15:00,92.8,61.2,29.85,SSW,213,3.0,10.0,35,0.00,,,0.00,meteohub,2013-09-14 18:15:00,
2013-09-14 13:20:00,93.0,61.3,29.85,SSE,159,2.0,13.0,35,0.00,,,0.00,meteohub,2013-09-14 18:20:00,
2013-09-14 13:25:00,93.0,61.3,29.85,SW,219,0.0,13.0,35,0.00,,,0.00,meteohub,2013-09-14 18:25:00,
2013-09-14 13:30:00,93.6,61.7,29.85,SE,126,7.0,11.0,35,0.00,,,0.00,meteohub,2013-09-14 18:30:00,
2013-09-14 13:35:00,93.7,61.2,29.84,SE,144,5.0,11.0,34,0.00,,,0.00,meteohub,2013-09-14 18:35:00,
2013-09-14 13:40:00,93.9,61.3,29.84,SSE,149,4.0,13.0,34,0.00,,,0.00,meteohub,2013-09-14 18:40:00,
2013-09-14 13:45:00,93.6,61.0,29.84,SSE,150,1.0,13.0,34,0.00,,,0.00,meteohub,2013-09-14 18:45:00,
2013-09-14 13:50:00,93.7,61.2,29.84,SSE,150,0.0,9.0,34,0.00,,,0.00,meteohub,2013-09-14 18:50:00,
2013-09-14 13:55:00,93.9,61.3,29.83,ENE,63,2.0,9.0,34,0.00,,,0.00,meteohub,2013-09-14 18:55:00,
2013-09-14 14:00:00,93.7,61.2,29.83,NE,43,0.0,6.0,34,0.00,,,0.00,meteohub,2013-09-14 19:00:00,
2013-09-14 14:05:00,94.1,61.5,29.83,ESE,103,4.0,9.0,34,0.00,,,0.00,meteohub,2013-09-14 19:05:00,
2013-09-14 14:10:00,93.7,61.2,29.82,ESE,123,0.0,9.0,34,0.00,,,0.00,meteohub,2013-09-14 19:10:00,
2013-09-14 14:16:00,93.7,61.2,29.82,SE,129,1.0,10.0,34,0.00,,,0.00,meteohub,2013-09-14 19:16:00,
2013-09-14 14:21:00,93.9,60.4,29.82,East,85,0.0,10.0,33,0.00,,,0.00,meteohub,2013-09-14 19:21:00,
2013-09-14 14:26:00,94.5,61.7,29.82,SE,144,0.0,14.0,34,0.00,,,0.00,meteohub,2013-09-14 19:26:00,
2013-09-14 14:31:00,95.2,61.5,29.81,SE,137,4.0,14.0,33,0.00,,,0.00,meteohub,2013-09-14 19:31:00,
2013-09-14 14:36:00,95.4,61.7,29.81,SSE,149,1.0,13.0,33,0.00,,,0.00,meteohub,2013-09-14 19:36:00,
2013-09-14 14:41:00,95.0,61.3,29.81,South,185,0.0,13.0,33,0.00,,,0.00,meteohub,2013-09-14 19:41:00,
2013-09-14 14:46:00,94.8,61.2,29.81,ESE,121,7.0,12.0,33,0.00,,,0.00,meteohub,2013-09-14 19:46:00,
2013-09-14 14:51:00,94.5,61.7,29.81,SSE,147,0.0,12.0,34,0.00,,,0.00,meteohub,2013-09-14 19:51:00,
2013-09-14 14:56:00,94.5,61.0,29.81,SE,126,1.0,12.0,33,0.00,,,0.00,meteohub,2013-09-14 19:56:00,
2013-09-14 15:01:00,94.3,60.8,29.81,SE,129,4.0,12.0,33,0.00,,,0.00,meteohub,2013-09-14 20:01:00,
2013-09-14 15:06:00,93.7,61.2,29.80,ESE,107,0.0,12.0,34,0.00,,,0.00,meteohub,2013-09-14 20:06:00,
2013-09-14 15:11:00,93.4,60.8,29.80,ENE,77,2.0,12.0,34,0.00,,,0.00,meteohub,2013-09-14 20:11:00,
2013-09-14 15:16:00,92.7,60.3,29.80,North,11,0.0,12.0,34,0.00,,,0.00,meteohub,2013-09-14 20:16:00,
2013-09-14 15:21:00,92.8,61.2,29.80,SE,137,7.0,12.0,35,0.00,,,0.00,meteohub,2013-09-14 20:21:00,
2013-09-14 15:26:00,93.0,60.4,29.79,ENE,64,1.0,14.0,34,0.00,,,0.00,meteohub,2013-09-14 20:26:00,
2013-09-14 15:31:00,93.4,60.8,29.79,SSE,149,0.0,14.0,34,0.00,,,0.00,meteohub,2013-09-14 20:31:00,
2013-09-14 15:36:00,93.7,61.2,29.79,ESE,121,6.0,11.0,34,0.00,,,0.00,meteohub,2013-09-14 20:36:00,
2013-09-14 15:41:00,93.9,61.3,29.78,NNW,336,6.0,11.0,34,0.00,,,0.00,meteohub,2013-09-14 20:41:00,
2013-09-14 15:46:00,93.9,60.4,29.78,East,100,4.0,12.0,33,0.00,,,0.00,meteohub,2013-09-14 20:46:00,
2013-09-14 15:51:00,94.1,60.6,29.78,ESE,109,2.0,12.0,33,0.00,,,0.00,meteohub,2013-09-14 20:51:00,
2013-09-14 15:56:00,94.6,61.0,29.78,ESE,105,9.0,13.0,33,0.00,,,0.00,meteohub,2013-09-14 20:56:00,
2013-09-14 16:01:00,94.8,60.4,29.78,SE,144,4.0,13.0,32,0.00,,,0.00,meteohub,2013-09-14 21:01:00,
2013-09-14 16:06:00,94.8,60.4,29.77,ESE,120,9.0,14.0,32,0.00,,,0.00,meteohub,2013-09-14 21:06:00,
2013-09-14 16:11:00,94.8,60.4,29.77,South,179,6.0,14.0,32,0.00,,,0.00,meteohub,2013-09-14 21:11:00,
2013-09-14 16:16:00,94.8,60.4,29.77,SE,127,0.0,11.0,32,0.00,,,0.00,meteohub,2013-09-14 21:16:00,
2013-09-14 16:21:00,94.5,61.0,29.77,SSE,161,4.0,11.0,33,0.00,,,0.00,meteohub,2013-09-14 21:21:00,
2013-09-14 16:26:00,94.5,61.0,29.77,South,188,4.0,15.0,33,0.00,,,0.00,meteohub,2013-09-14 21:26:00,
2013-09-14 16:31:00,94.6,61.0,29.77,South,182,0.0,15.0,33,0.00,,,0.00,meteohub,2013-09-14 21:31:00,
2013-09-14 16:36:00,94.6,61.0,29.77,SSE,155,4.0,15.0,33,0.00,,,0.00,meteohub,2013-09-14 21:36:00,
2013-09-14 16:41:00,94.8,61.2,29.77,South,189,6.0,15.0,33,0.00,,,0.00,meteohub,2013-09-14 21:41:00,
2013-09-14 16:46:00,94.6,61.0,29.77,SSW,209,1.0,16.0,33,0.00,,,0.00,meteohub,2013-09-14 21:46:00,
2013-09-14 16:51:00,94.6,61.0,29.77,South,190,6.0,16.0,33,0.00,,,0.00,meteohub,2013-09-14 21:51:00,
2013-09-14 16:56:00,94.6,61.0,29.77,WSW,238,0.0,16.0,33,0.00,,,0.00,meteohub,2013-09-14 21:56:00,
2013-09-14 17:01:00,95.2,61.5,29.76,SE,142,8.0,16.0,33,0.00,,,0.00,meteohub,2013-09-14 22:01:00,
2013-09-14 17:06:00,95.2,61.5,29.76,South,188,6.0,11.0,33,0.00,,,0.00,meteohub,2013-09-14 22:06:00,
2013-09-14 17:11:00,94.6,61.0,29.76,South,180,0.0,11.0,33,0.00,,,0.00,meteohub,2013-09-14 22:11:00,
2013-09-14 17:16:00,94.6,60.3,29.76,ESE,123,0.0,14.0,32,0.00,,,0.00,meteohub,2013-09-14 22:16:00,
2013-09-14 17:21:00,94.5,61.0,29.76,SE,138,2.0,14.0,33,0.00,,,0.00,meteohub,2013-09-14 22:21:00,
2013-09-14 17:27:00,93.9,60.4,29.76,SSE,155,0.0,14.0,33,0.00,,,0.00,meteohub,2013-09-14 22:27:00,
2013-09-14 17:32:00,93.7,61.2,29.76,SW,217,4.0,14.0,34,0.00,,,0.00,meteohub,2013-09-14 22:32:00,
2013-09-14 17:37:00,93.7,61.2,29.76,SE,129,7.0,12.0,34,0.00,,,0.00,meteohub,2013-09-14 22:37:00,
2013-09-14 17:42:00,93.4,60.8,29.76,ESE,119,0.0,12.0,34,0.00,,,0.00,meteohub,2013-09-14 22:42:00,
2013-09-14 17:47:00,93.0,60.4,29.76,SSE,157,0.0,11.0,34,0.00,,,0.00,meteohub,2013-09-14 22:47:00,
2013-09-14 17:50:00,93.0,61.3,29.76,SE,134,2.0,11.0,35,0.00,,,0.00,meteohub,2013-09-14 22:50:00,
2013-09-14 17:55:00,93.0,60.4,29.76,SE,144,0.0,10.0,34,0.00,,,0.00,meteohub,2013-09-14 22:55:00,
2013-09-14 18:00:00,93.2,60.6,29.76,SE,132,4.0,10.0,34,0.00,,,0.00,meteohub,2013-09-14 23:00:00,
2013-09-14 18:05:00,93.0,60.4,29.76,SSE,162,1.0,10.0,34,0.00,,,0.00,meteohub,2013-09-14 23:05:00,
2013-09-14 18:10:00,93.0,60.4,29.76,ESE,122,6.0,13.0,34,0.00,,,0.00,meteohub,2013-09-14 23:10:00,
2013-09-14 18:15:00,93.0,61.3,29.76,SE,138,2.0,13.0,35,0.00,,,0.00,meteohub,2013-09-14 23:15:00,
2013-09-14 18:20:00,93.0,60.4,29.77,SE,125,5.0,13.0,34,0.00,,,0.00,meteohub,2013-09-14 23:20:00,
2013-09-14 18:25:00,92.8,60.3,29.77,South,171,1.0,13.0,34,0.00,,,0.00,meteohub,2013-09-14 23:25:00,
2013-09-14 18:30:00,92.7,61.0,29.77,SSE,165,2.0,12.0,35,0.00,,,0.00,meteohub,2013-09-14 23:30:00,
2013-09-14 18:35:00,92.5,60.8,29.77,SE,140,0.0,12.0,35,0.00,,,0.00,meteohub,2013-09-14 23:35:00,
2013-09-14 18:40:00,92.1,60.4,29.77,SE,142,0.0,11.0,35,0.00,,,0.00,meteohub,2013-09-14 23:40:00,
2013-09-14 18:45:00,92.1,60.4,29.77,SSE,165,6.0,11.0,35,0.00,,,0.00,meteohub,2013-09-14 23:45:00,
2013-09-14 18:50:00,91.9,60.4,29.77,SSE,149,0.0,13.0,35,0.00,,,0.00,meteohub,2013-09-14 23:50:00,
2013-09-14 18:55:00,91.6,60.8,29.77,South,186,3.0,14.0,36,0.00,,,0.00,meteohub,2013-09-14 23:55:00,
2013-09-14 19:00:00,91.6,60.8,29.77,SSE,167,0.0,14.0,36,0.00,,,0.00,meteohub,2013-09-15 00:00:00,
2013-09-14 19:05:00,91.2,60.6,29.77,SE,143,4.0,10.0,36,0.00,,,0.00,meteohub,2013-09-15 00:05:00,
2013-09-14 19:10:00,91.2,60.6,29.77,South,171,5.0,10.0,36,0.00,,,0.00,meteohub,2013-09-15 00:10:00,
2013-09-14 19:15:00,91.0,60.4,29.78,SSW,192,0.0,10.0,36,0.00,,,0.00,meteohub,2013-09-15 00:15:00,
2013-09-14 19:20:00,90.9,61.0,29.77,SE,142,0.0,10.0,37,0.00,,,0.00,meteohub,2013-09-15 00:20:00,
2013-09-14 19:25:00,90.7,60.8,29.78,SE,137,1.0,10.0,37,0.00,,,0.00,meteohub,2013-09-15 00:25:00,
2013-09-14 19:30:00,90.3,60.4,29.78,SE,143,2.0,10.0,37,0.00,,,0.00,meteohub,2013-09-15 00:30:00,
2013-09-14 19:35:00,90.1,60.4,29.78,SE,137,0.0,9.0,37,0.00,,,0.00,meteohub,2013-09-15 00:35:00,
2013-09-14 19:40:00,90.0,61.0,29.78,SE,136,4.0,9.0,38,0.00,,,0.00,meteohub,2013-09-15 00:40:00,
2013-09-14 19:45:00,89.8,60.8,29.78,SE,140,0.0,7.0,38,0.00,,,0.00,meteohub,2013-09-15 00:45:00,
2013-09-14 19:50:00,89.4,61.2,29.78,SSE,149,2.0,7.0,39,0.00,,,0.00,meteohub,2013-09-15 00:50:00,
2013-09-14 19:55:00,89.2,61.0,29.78,SSE,149,0.0,7.0,39,0.00,,,0.00,meteohub,2013-09-15 00:55:00,
2013-09-14 20:00:00,88.9,60.8,29.78,SE,145,0.0,7.0,39,0.00,,,0.00,meteohub,2013-09-15 01:00:00,
2013-09-14 20:05:00,88.5,60.4,29.78,SE,145,0.0,7.0,39,0.00,,,0.00,meteohub,2013-09-15 01:05:00,
2013-09-14 20:10:00,88.3,61.0,29.78,SE,145,0.0,7.0,40,0.00,,,0.00,meteohub,2013-09-15 01:10:00,
2013-09-14 20:15:00,88.2,60.8,29.78,SE,145,0.0,7.0,40,0.00,,,0.00,meteohub,2013-09-15 01:15:00,
2013-09-14 20:20:00,88.0,60.6,29.79,SE,145,0.0,7.0,40,0.00,,,0.00,meteohub,2013-09-15 01:20:00,
2013-09-14 20:25:00,87.6,60.3,29.79,SE,145,0.0,0.0,40,0.00,,,0.00,meteohub,2013-09-15 01:25:00,
2013-09-14 20:30:00,87.4,60.8,29.79,SE,145,0.0,0.0,41,0.00,,,0.00,meteohub,2013-09-15 01:30:00,
2013-09-14 20:35:00,87.1,60.4,29.79,SE,145,0.0,0.0,41,0.00,,,0.00,meteohub,2013-09-15 01:35:00,
2013-09-14 20:40:00,86.9,60.4,29.79,SE,145,0.0,0.0,41,0.00,,,0.00,meteohub,2013-09-15 01:40:00,
2013-09-14 20:45:00,86.7,60.8,29.79,SE,144,0.0,0.0,42,0.00,,,0.00,meteohub,2013-09-15 01:45:00,
2013-09-14 20:51:00,86.5,60.8,29.80,SE,145,0.0,0.0,42,0.00,,,0.00,meteohub,2013-09-15 01:51:00,
2013-09-14 20:56:00,86.4,60.6,29.80,SE,145,0.0,4.0,42,0.00,,,0.00,meteohub,2013-09-15 01:56:00,
2013-09-14 21:01:00,86.2,60.4,29.80,SE,145,0.0,4.0,42,0.00,,,0.00,meteohub,2013-09-15 02:01:00,
2013-09-14 21:06:00,86.0,60.3,29.81,SE,145,0.0,2.0,42,0.00,,,0.00,meteohub,2013-09-15 02:06:00,
2013-09-14 21:11:00,85.8,60.8,29.81,SE,145,0.0,2.0,43,0.00,,,0.00,meteohub,2013-09-15 02:11:00,
2013-09-14 21:16:00,85.6,60.6,29.81,SE,145,0.0,1.0,43,0.00,,,0.00,meteohub,2013-09-15 02:16:00,
2013-09-14 21:21:00,85.5,60.4,29.81,SE,145,0.0,1.0,43,0.00,,,0.00,meteohub,2013-09-15 02:21:00,
2013-09-14 21:26:00,85.3,60.3,29.81,SE,144,0.0,0.0,43,0.00,,,0.00,meteohub,2013-09-15 02:26:00,
2013-09-14 21:31:00,85.1,60.1,29.81,SE,145,0.0,0.0,43,0.00,,,0.00,meteohub,2013-09-15 02:31:00,
2013-09-14 21:36:00,84.7,59.7,29.81,SE,145,0.0,0.0,43,0.00,,,0.00,meteohub,2013-09-15 02:36:00,
2013-09-14 21:41:00,84.7,60.4,29.81,SE,145,0.0,0.0,44,0.00,,,0.00,meteohub,2013-09-15 02:41:00,
2013-09-14 21:46:00,84.4,60.1,29.81,SE,145,0.0,0.0,44,0.00,,,0.00,meteohub,2013-09-15 02:46:00,
2013-09-14 21:51:00,84.0,60.4,29.82,SE,145,0.0,0.0,45,0.00,,,0.00,meteohub,2013-09-15 02:51:00,
2013-09-14 21:56:00,83.8,60.3,29.82,SE,145,0.0,0.0,45,0.00,,,0.00,meteohub,2013-09-15 02:56:00,
2013-09-14 22:01:00,83.7,60.1,29.83,SE,145,0.0,0.0,45,0.00,,,0.00,meteohub,2013-09-15 03:01:00,
2013-09-14 22:06:00,83.5,59.9,29.83,SE,144,0.0,2.0,45,0.00,,,0.00,meteohub,2013-09-15 03:06:00,
2013-09-14 22:11:00,83.1,60.3,29.83,SE,144,0.0,2.0,46,0.00,,,0.00,meteohub,2013-09-15 03:11:00,
2013-09-14 22:16:00,82.9,60.1,29.83,SE,144,0.0,2.0,46,0.00,,,0.00,meteohub,2013-09-15 03:16:00,
2013-09-14 22:21:00,82.8,59.9,29.83,SE,144,0.0,2.0,46,0.00,,,0.00,meteohub,2013-09-15 03:21:00,
2013-09-14 22:26:00,82.8,60.4,29.83,SE,144,0.0,0.0,47,0.00,,,0.00,meteohub,2013-09-15 03:26:00,
2013-09-14 22:31:00,82.6,60.3,29.83,SE,144,0.0,0.0,47,0.00,,,0.00,meteohub,2013-09-15 03:31:00,
2013-09-14 22:36:00,82.2,59.9,29.83,SE,144,0.0,0.0,47,0.00,,,0.00,meteohub,2013-09-15 03:36:00,
2013-09-14 22:41:00,82.0,60.4,29.83,SE,144,0.0,0.0,48,0.00,,,0.00,meteohub,2013-09-15 03:41:00,
2013-09-14 22:46:00,81.9,60.3,29.83,SE,144,0.0,1.0,48,0.00,,,0.00,meteohub,2013-09-15 03:46:00,
2013-09-14 22:51:00,81.7,60.1,29.83,SE,144,0.0,1.0,48,0.00,,,0.00,meteohub,2013-09-15 03:51:00,
2013-09-14 22:56:00,81.5,59.9,29.83,SSE,163,0.0,2.0,48,0.00,,,0.00,meteohub,2013-09-15 03:56:00,
2013-09-14 23:01:00,81.5,59.9,29.83,SE,126,2.0,2.0,48,0.00,,,0.00,meteohub,2013-09-15 04:01:00,
2013-09-14 23:03:00,81.3,60.3,29.83,SE,128,0.0,2.0,49,0.00,,,0.00,meteohub,2013-09-15 04:03:00,
2013-09-14 23:08:00,81.3,60.3,29.83,SE,137,5.0,8.0,49,0.00,,,0.00,meteohub,2013-09-15 04:08:00,
2013-09-14 23:14:00,81.3,60.3,29.84,SSE,157,4.0,8.0,49,0.00,,,0.00,meteohub,2013-09-15 04:14:00,
2013-09-14 23:19:00,81.5,61.0,29.84,SE,136,0.0,8.0,50,0.00,,,0.00,meteohub,2013-09-15 04:19:00,
2013-09-14 23:24:00,81.7,61.2,29.83,SE,138,0.0,8.0,50,0.00,,,0.00,meteohub,2013-09-15 04:24:00,
2013-09-14 23:29:00,81.7,61.2,29.83,SE,140,0.0,10.0,50,0.00,,,0.00,meteohub,2013-09-15 04:29:00,
2013-09-14 23:34:00,81.7,61.2,29.83,SE,140,0.0,6.0,50,0.00,,,0.00,meteohub,2013-09-15 04:34:00,
2013-09-14 23:39:00,81.7,61.2,29.83,SE,140,0.0,6.0,50,0.00,,,0.00,meteohub,2013-09-15 04:39:00,
2013-09-14 23:44:00,81.5,61.0,29.83,SSE,153,0.0,6.0,50,0.00,,,0.00,meteohub,2013-09-15 04:44:00,
2013-09-14 23:49:00,81.3,61.5,29.84,SE,145,0.0,6.0,51,0.00,,,0.00,meteohub,2013-09-15 04:49:00,
2013-09-14 23:54:00,81.1,61.3,29.83,SE,142,0.0,8.0,51,0.00,,,0.00,meteohub,2013-09-15 04:54:00,